Regional Weather Roundup
Issued by NWS

Home | Current Version | Previous Version | Text Only | Print | Product List | Glossary Off
Versions: 1 2 3 4 5 6 7 8 9 10 11 12 13 14 15 16 17 18 19 20 21 22 23 24 25 26 27 28 29 30 31 32 33 34 35 36 37 38 39 40 41 42 43 44 45 46 47 48 49 50

000
ASUS45 KBOU 041210
RWRCO

WEATHER ROUNDUP FOR COLORADO
NATIONAL WEATHER SERVICE DENVER/BOULDER CO
600 AM MDT SAT JUL 04 2015

NOTE: "FAIR" INDICATES FEW OR NO CLOUDS BELOW 12000 FEET WITH NO
SIGNIFICANT WEATHER AND/OR OBSTRUCTIONS TO VISIBILITY.

COZ001>005-013-030-031-041300-
...NORTHWEST COLORADO...

CITY           SKY/WX    TMP DP  RH WIND       PRES   REMARKS
CRAIG          PTCLDY    54  47  77 CALM      30.13R
HAYDEN         PTCLDY    59  39  47 SE8       30.15S
MEEKER         PTCLDY    57  46  66 E5        30.16R
MOUNT WERNER   NOT AVBL
STEAMBOAT SPGS PTCLDY    50  43  75 CALM      30.19R
WALDEN         CLEAR     46  39  76 E7        30.25S
$$

COZ006>008-011-041300-
...WEST CENTRAL VALLEYS...

CITY           SKY/WX    TMP DP  RH WIND       PRES   REMARKS
GRAND JUNCTION CLOUDY    73  50  44 E16       30.05R
MONTROSE       CLOUDY    65  48  54 E5        30.19R
EAGLE          PTCLDY    55  48  76 SE5       30.23R
RIFLE          MOCLDY    61  55  81 CALM      30.13R
DELTA          CLOUDY    68  52  55 CALM      30.13S
NUCLA          DRIZZLE   63  50  63 E5        30.23R
$$

COZ017>023-064>068-041300-
...SOUTHWEST COLORADO...

CITY           SKY/WX    TMP DP  RH WIND       PRES   REMARKS
DURANGO        CLEAR     49  45  86 CALM      30.24S
CORTEZ         CLEAR     58  50  75 NE6       30.19R
PAGOSA SPRINGS CLEAR     49  48  94 CALM      30.32S
TELLURIDE      CLOUDY    57  44  61 CALM      30.43R
WOLF CREEK PAS NOT AVBL
$$

COZ009-010-012-014-032>034-037-058>063-041300-
...CENTRAL COLORADO...

CITY           SKY/WX    TMP DP  RH WIND       PRES   REMARKS
ASPEN          MOCLDY    50  43  77 CALM      30.28R
BUENA VISTA    PTCLDY    51  47  85 W6        30.30S
COPPER MTN     PTCLDY    54  37  54 SW6       30.59S
BERTHOUD PASS  FAIR      43  32  65 NW23G29   30.60S
COTTONWOOD PAS NOT AVBL
GUNNISON       MOCLDY    54  45  71 N8        30.36R
KREMMLING      CLEAR     50  39  66 CALM      30.27R
LEADVILLE      PTCLDY    43  41  93 N3        30.43S
MONARCH PASS   MOCLDY    46  36  66 W23       30.68R
SALIDA         PTCLDY    59  50  72 NW10      30.34R
SUNLIGHT       CLOUDY    54  41  62 CALM      30.52R
WILKERSON PASS CLEAR     46  37  71 W9G18     30.53S
$$

COZ069>075-041300-
...SAN LUIS VALLEY/SANGRE DE CRISTO MOUNTAINS...

CITY           SKY/WX    TMP DP  RH WIND       PRES   REMARKS
ALAMOSA        PTCLDY    50  47  89 NW6       30.30S
LA VETA PASS   CLEAR     48  43  81 MISG      30.42S
SAGUACHE       MOCLDY    54  46  76 NW8       30.31S
$$

COZ035-036-038>040-041300-
...NORTHERN COLORADO FRONT RANGE...

CITY           SKY/WX    TMP DP  RH WIND       PRES   REMARKS
DENVER INTL AP PTCLDY    63  50  62 N5        30.02R
DMNS CITY PARK   N/A     62  51  67 NW2G8     30.01S
AURORA         PTCLDY    63  51  66 S9        30.03S
FRONT RANGE AP PTCLDY    64  54  68 S5        30.04R
ERIE MUNI ARPT CLEAR     57  55  92 CALM      30.01S
BOULDER MUN AP CLEAR     61  55  82 CALM      30.03R
CENTENNIAL     PTCLDY    62  50  64 S7        30.05S
BROOMFIELD     PTCLDY    64  54  68 CALM      30.04R
FORT COLLINS   PTCLDY    61  57  88 N5        30.02F
LONGMONT       PTCLDY    65  58  79 N7        30.02S
$$

COZ041-046-047-076>085-087-088-041300-
...PIKES PEAK/PALMER DIVIDE AND SOUTHERN FOOTHILLS...

CITY           SKY/WX    TMP DP  RH WIND       PRES   REMARKS
COLO. SPRINGS  PTCLDY    59  49  69 CALM      30.12S
A. F. ACADEMY  CLEAR     55  51  87 SE6       30.13R
ELLICOTT       CLEAR    N/A N/A N/A CALM      30.11S
FALCON         CLEAR     56  46  70 NW3       30.16F
FORT CARSON    CLEAR     54  51  89 E5        30.09S
LIMON          FOG       52  52 100 CALM      30.06S VSB 1
MONUMENT HILL  NOT AVBL
TRINIDAD       LGT RAIN  61  55  81 SW16      30.10F
$$

COZ042>045-048>051-090-091-041300-
...NORTHEAST COLORADO...

CITY           SKY/WX    TMP DP  RH WIND       PRES   REMARKS
GREELEY ARPT   MOCLDY    61  59  94 CALM      30.00S
AKRON          MOCLDY    63  60  90 S10       30.00F
BURLINGTON     CLEAR     61  58  90 S9        30.02S FOG
WRAY           CLEAR     64  60  86 SE6       29.98F
STERLING       MOCLDY    64  61  88 S8          N/A
HOLYOKE        CLEAR     61  57  88 SE6       29.99F FOG
FORT MORGAN    MOCLDY    60  58  90 CALM      29.99S
$$

COZ086-089-092>099-041300-
...SOUTHEAST COLORADO...

CITY           SKY/WX    TMP DP  RH WIND       PRES   REMARKS
PUEBLO         CLEAR     58  54  86 NW5       30.03F
LA JUNTA       CLEAR     60  55  83 NW6       30.00F
LAMAR          CLEAR     60  58  92 CALM      29.97F
SPRINGFIELD      N/A     65  59  81 SW12      30.04S
$$



USA.gov is the U.S. government's official web portal to all federal, state and local government web resources and services.